User: anonymous   Login
Location: South Tamworth Observatory
(43.8246°N, 71.3026°W)
Time: 08:07:49
(UTC-04:00)
Language:

Cosmos 2208 Rocket - Orbit

View from above orbital plane
View from above orbital plane
View from above satellite
View from above satellite

Ground track
Ground track

The orbit data is extracted from the following two-line orbital elements,

1 22081U 92053B   15243.33504375  .00000030  00000-0  20242-4 0  9994
2 22081 074.0443 195.6842 0036748 324.0394 035.8285 14.33255119204871
Epoch (UTC): 31 August 2015 08:02:27
Eccentricity: 0.0036748
inclination: 74.0443°
perigee height: 754 km
apogee height: 807 km
right ascension of ascending node: 195.6842°
argument of perigee: 324.0394°
revolutions per day: 14.33255119
mean anomaly at epoch: 35.8285°
orbit number at epoch: 20487

The dashed part of the orbit path shows where the satellite is in the earth's shadow,  

DLR